Regional Weather Roundup
Issued by NWS Kansas City/Pleasant Hill, MO

Home | Current Version | Previous Version | Graphics & Text | Print | Product List | Glossary Off
Versions: 1 2 3 4 5 6 7 8 9 10 11 12 13 14 15 16 17 18 19 20 21 22 23 24 25 26 27 28 29 30 31 32 33 34 35 36 37 38 39 40 41 42 43 44 45 46 47 48 49 50

000
ASUS43 KEAX 190010
RWREAX

WEATHER ROUNDUP FOR EASTERN KANSAS AND NORTHWEST MISSOURI
NATIONAL WEATHER SERVICE KANSAS CITY/PLEASANT HILL MO
700 PM CDT WED OCT 18 2017

KSZ040-057-103>105-MOZ028-029-037-043-190100-
...KANSAS CITY METROPOLITAN AREA...

CITY           SKY/WX    TMP DP  RH WIND       PRES   REMARKS
K.C. INTL      PTCLDY    59  50  72 S10       30.00S
6HR MIN TEMP:  59; 6HR MAX TEMP:  74;

K.C. DOWNTOWN  CLEAR     68  50  52 S5        30.01R
6HR MIN TEMP:  68; 6HR MAX TEMP:  76;

LEES SUMMIT    CLOUDY    68  50  52 S12       30.03R
6HR MIN TEMP:  67; 6HR MAX TEMP:  74;

OLATHE - IXD   PTCLDY    63  50  62 S6        30.02R
6HR MIN TEMP:  63; 6HR MAX TEMP:  74;

OLATHE - OJC   MOCLDY    65  49  56 S7        30.02R
6HR MIN TEMP:  65; 6HR MAX TEMP:  73;

LAWRENCE       PTCLDY    64  50  60 SE6       30.00R

$$

MOZ001>008-011>017-020>025-030>033-038>040-044>046-053-054-190100-
...NORTHERN AND CENTRAL MISSOURI...

CITY           SKY/WX    TMP DP  RH WIND       PRES   REMARKS
ST. JOSEPH     CLEAR     65  52  62 SE7       29.99R
6HR MIN TEMP:  65; 6HR MAX TEMP:  76;

MOSBY          CLEAR     66  46  48 SE5       30.02R
WARRENSBURG    CLOUDY    64  50  59 S5        30.03R
WHITEMAN AFB   CLEAR     63  51  66 S7        29.99S
6HR MIN TEMP:  63; 6HR MAX TEMP:  75;

CLINTON        MOCLDY    68  50  52 S8        30.04S
SEDALIA        PTCLDY    65  52  62 S12       30.04F
6HR MIN TEMP:  65; 6HR MAX TEMP:  76;

WARSAW         NOT AVBL
CHILLICOTHE      N/A     65  51  60 S5        30.03R
6HR MIN TEMP:  65; 6HR MAX TEMP:  74;

KIRKSVILLE     CLEAR     64  49  57 S7        30.03R
6HR MIN TEMP:  64; 6HR MAX TEMP:  73;


$$

MOZ041-047>049-056>058-063>065-088>090-097-190100-
...EASTERN AND SOUTHERN MISSOURI...

CITY           SKY/WX    TMP DP  RH WIND       PRES   REMARKS
ST. LOUIS INTL PTCLDY    69  47  45 S9        30.10R
6HR MIN TEMP:  69; 6HR MAX TEMP:  75;

SPIRIT OF STL  CLEAR     62  49  62 SE3       30.08R
COLUMBIA       CLEAR     64  47  53 S9        30.05F
JEFFERSON CITY CLEAR     64  47  53 SE7       30.05F
ROLLA          CLEAR     64  45  49 S10       30.10R
OSAGE BEACH    CLEAR     68  45  43 S6        30.08S
SPRINGFIELD    CLEAR     65  45  48 S8        30.08R
BRANSON        PTCLDY    66  41  39 SE7       30.12S
JOPLIN         CLEAR     66  48  52 S9        30.07R
WEST PLAINS    CLEAR     66  47  50 SE6       30.15R

$$

IAZ060-094-KSZ022-034>040-054-083-096-NEZ052-066-093-190100-
...KANSAS...SOUTHEAST NEBRASKA AND IOWA...

CITY           SKY/WX    TMP DP  RH WIND       PRES   REMARKS
TOPEKA         CLOUDY    67  51  56 S7        29.99R
6HR MIN TEMP:  67; 6HR MAX TEMP:  78;

MANHATTAN      CLEAR     61  52  72 CALM      29.97R
EMPORIA        MOCLDY    68  49  50 S7        30.00R
CHANUTE        CLEAR     66  52  60 S9        30.04R
WICHITA        MOCLDY    68  50  52 S7        30.00R
OMAHA          PTCLDY    69  46  43 N13       29.98R
LINCOLN        CLEAR     62  47  57 N7        29.99R
FALLS CITY     CLEAR     68  49  50 CALM      29.98R
LAMONI         CLEAR     63  49  60 S8        30.00R
DES MOINES     PTCLDY    67  48  50 SW8       29.98R

$$




USA.gov is the U.S. government's official web portal to all federal, state and local government web resources and services.